Wind_Speed
71 72 72 73 74 75 76 77 78 79 80 81 82 83 83 84 85 86 86 87 87 88 88 88 87 87 86 85 84 83 81 80 78 76 74 72 70 67 65 63 61 59 58 57 56 56 55 55 55 54 54 53 53 52 52 51 51 50 50 49 49 48 47 47 46 45 45 44 44 43 43 42 42 42 42 42 43 44 44 44 45 45 46 47 48 49
73 73 74 75 75 76 77 78 79 80 81 82 83 84 85 85 86 87 87 87 88 87 87 87 86 85 83 82 80 78 77 75 73 70 68 66 63 61 59 57 56 55 55 55 55 55 55 54 54 53 53 52 51 51 50 50 49 48 48 47 46 45 45 44 43 42 42 41 41 41 40 40 39 39 40 41 41 42 42 41 41 41 42 42 43 43
74 75 75 76 77 78 79 80 81 82 83 84 85 85 86 86 87 87 87 87 87 86 86 84 83 81 80 78 76 73 71 69 67 64 62 59 57 56 54 54 53 53 53 54 54 54 53 53 52 51 50 50 49 48 48 47 47 46 45 44 43 42 42 41 41 40 40 40 40 39 39 39 39 39 40 41 41 41 40 40 39 39 40 40 40 40
75 76 77 78 78 79 80 81 82 84 84 85 86 87 87 87 87 87 86 86 85 84 83 81 79 77 75 73 71 68 66 64 61 58 56 54 53 52 52 51 52 52 52 53 53 52 51 50 49 48 47 46 46 46 45 45 44 43 42 41 40 40 39 39 39 39 39 40 40 40 39 39 39 40 41 41 41 41 40 40 40 40 40 40 40 40
76 77 78 79 80 81 82 83 84 85 86 86 87 87 87 87 86 86 85 84 83 81 79 77 74 72 70 67 65 63 60 57 55 53 51 50 50 50 50 50 50 51 51 51 50 49 47 46 45 44 43 43 42 42 42 41 41 40 39 39 38 38 38 39 39 40 40 40 40 40 40 40 40 41 41 41 41 41 41 40 40 40 40 40 40 40
78 79 80 81 82 82 83 84 85 86 87 87 87 87 87 86 85 84 83 81 79 77 74 72 69 67 64 62 59 56 54 51 50 49 48 48 48 48 48 49 49 49 48 47 45 44 42 41 40 39 39 38 38 38 38 38 37 37 37 37 37 38 38 39 40 40 41 41 41 41 41 41 41 40 40 40 40 40 40 40 40 40 40 40 40 41
80 81 82 83 84 84 85 86 87 87 87 87 87 87 86 85 83 81 79 77 75 72 69 67 64 61 58 56 53 51 49 48 47 47 46 46 46 46 47 47 46 45 44 42 40 38 37 35 35 34 34 34 35 35 35 35 36 36 36 37 38 38 39 40 40 40 41 41 41 41 40 40 40 39 39 39 39 39 39 39 39 39 39 39 39 40
82 83 84 84 85 86 87 87 87 88 87 87 86 85 83 82 80 78 75 73 70 67 64 61 59 56 53 51 49 47 46 46 45 45 45 45 45 45 44 44 43 41 39 37 34 33 32 31 31 31 31 32 32 33 34 35 35 36 37 38 39 39 40 40 40 40 40 40 40 39 39 38 38 37 37 37 37 37 37 37 37 38 38 38 38 38
84 85 85 86 87 87 87 88 88 88 87 86 84 82 80 78 76 74 71 67 64 61 58 56 53 51 49 47 46 45 45 44 44 44 43 43 43 42 42 40 38 36 34 31 30 29 28 28 29 29 30 31 32 33 35 36 37 38 39 39 40 40 41 41 40 40 40 39 38 37 37 36 35 35 35 35 35 36 36 36 36 37 37 37 37 37
86 86 87 88 88 88 87 87 87 87 86 84 82 80 77 74 71 68 65 62 59 56 53 51 49 47 46 45 45 44 44 43 43 42 41 41 40 40 38 37 34 32 30 28 27 27 27 28 29 30 31 32 34 35 36 37 38 39 40 40 41 41 41 40 40 39 39 38 37 36 35 34 34 34 34 34 34 35 35 35 36 36 36 36 36 37
88 88 88 88 88 88 87 86 85 84 83 81 79 77 73 69 65 61 58 56 54 52 49 47 46 44 44 44 44 44 43 42 42 41 40 39 38 37 35 33 31 29 27 27 26 27 28 29 30 31 32 33 35 36 37 38 39 39 40 40 40 40 40 39 39 38 37 36 35 34 34 33 33 33 33 33 33 34 34 35 35 36 36 36 36 36
89 89 89 88 88 87 86 84 83 81 79 76 73 71 68 65 60 56 53 51 49 48 46 45 44 43 43 43 43 43 42 41 40 39 38 37 36 35 33 31 29 28 27 27 28 28 29 30 31 32 33 34 35 35 36 37 37 38 38 38 38 38 38 37 37 36 36 35 34 33 33 32 32 32 32 33 33 33 34 34 35 35 36 36 36 36
89 89 88 88 86 85 83 80 78 76 74 70 67 63 61 59 56 52 49 47 46 45 44 43 43 43 42 42 42 42 41 40 39 38 37 36 35 34 32 30 29 28 28 29 29 30 31 32 32 33 33 34 35 35 35 36 36 36 36 35 35 35 35 35 35 35 34 33 33 32 32 31 31 32 32 32 33 33 34 34 35 35 35 36 36 36
89 89 88 86 84 82 79 76 73 70 68 65 61 58 56 53 51 49 47 45 44 43 42 42 42 42 42 42 42 41 40 39 38 37 37 36 35 33 32 31 30 30 30 31 32 32 33 33 34 34 34 35 35 35 35 35 35 35 34 34 33 33 33 33 33 33 33 32 32 31 31 31 31 31 32 32 32 33 34 34 35 35 35 36 36 36
89 88 86 84 82 79 75 72 69 65 63 59 56 53 51 49 47 46 44 44 43 42 41 41 41 41 41 42 42 41 40 39 38 37 36 36 35 34 33 32 32 32 32 33 34 34 35 35 35 36 35 35 35 35 35 35 34 34 33 32 32 32 32 32 32 32 32 31 31 31 31 31 31 31 32 32 33 33 34 34 35 35 36 36 36 36
88 86 83 81 78 75 71 68 64 60 58 55 52 49 47 46 45 44 43 43 42 42 41 41 40 40 40 40 41 40 40 39 38 37 36 36 36 35 34 33 33 33 34 34 35 36 36 37 37 37 37 36 36 36 35 34 34 33 32 31 31 30 30 30 31 31 31 31 31 31 31 31 31 31 32 32 33 33 34 34 35 35 36 36 36 36
85 83 80 77 74 71 67 63 59 56 53 50 48 46 45 43 43 42 42 42 42 41 41 40 39 38 38 38 39 39 39 39 38 37 37 37 37 36 35 35 35 35 35 35 36 37 37 38 38 38 38 37 37 36 35 34 33 32 31 30 29 29 29 29 29 30 30 30 30 31 31 31 31 32 32 32 33 33 33 34 34 34 35 35 35 35
82 79 75 72 69 66 62 58 55 52 49 47 46 44 43 42 41 41 41 41 41 40 40 39 38 37 37 37 37 38 39 39 38 38 37 37 37 37 37 36 36 36 36 36 37 37 38 39 39 39 39 38 38 37 36 34 32 31 29 28 27 27 27 28 29 29 30 30 30 31 31 31 32 32 32 32 33 33 33 33 33 33 33 34 34 34
78 74 70 67 64 61 57 53 50 48 47 45 44 42 41 41 40 40 40 40 40 39 39 38 37 36 36 35 36 37 38 39 39 39 38 38 38 38 38 38 37 37 37 37 37 38 39 39 40 40 40 39 39 38 36 34 32 30 28 26 26 26 26 27 28 29 30 30 31 31 31 32 32 32 33 32 32 32 32 32 32 32 32 32 32 32
73 69 65 61 58 56 53 50 47 46 45 44 42 41 40 40 40 40 39 39 39 38 38 37 36 35 35 35 35 36 37 38 39 39 38 38 38 38 39 39 38 38 37 37 38 38 39 40 41 41 41 40 39 38 37 35 32 30 28 26 26 26 26 27 28 29 30 30 31 31 32 32 33 33 33 33 32 32 32 31 31 31 31 31 31 31
68 64 61 57 54 51 49 47 45 44 44 43 41 40 40 40 39 39 38 38 38 37 37 36 35 35 34 34 34 34 36 37 38 38 38 38 38 38 39 39 39 39 38 38 38 39 39 40 41 41 41 40 40 39 37 35 33 31 28 27 26 26 27 27 28 29 30 31 31 32 32 33 33 33 33 33 33 32 32 31 31 30 30 30 30 30
63 59 56 53 50 47 46 45 44 43 43 42 41 40 40 40 39 39 38 37 37 37 36 35 35 34 34 34 34 34 35 36 37 38 38 37 37 37 38 40 40 39 38 38 38 38 39 40 40 41 41 41 40 39 38 36 35 32 30 28 28 27 28 28 29 30 30 31 32 32 33 33 33 34 34 33 33 33 32 31 31 30 30 29 29 29
58 55 52 49 47 45 44 43 42 42 42 41 41 40 40 40 39 38 38 37 37 36 36 35 34 34 34 34 34 34 34 35 36 37 37 37 36 36 37 39 40 39 38 38 38 38 39 39 39 40 40 40 40 39 39 37 36 34 32 31 30 29 29 29 30 30 31 32 32 33 33 33 34 34 34 34 34 33 32 32 31 30 30 29 29 28
54 51 48 46 44 43 42 42 42 41 42 42 41 41 40 39 39 38 38 37 37 36 35 35 34 33 33 33 33 33 34 35 35 36 36 36 35 35 36 38 38 39 38 38 38 38 38 38 38 38 39 39 39 39 39 38 38 36 35 33 32 31 31 31 31 31 32 32 33 33 33 34 34 34 34 34 34 33 33 32 32 31 30 29 29 28
50 48 45 43 42 41 41 41 41 41 41 42 41 41 40 39 38 38 37 37 36 36 35 35 34 33 33 33 33 33 34 34 35 36 36 36 35 34 35 36 37 38 37 37 37 37 37 37 37 37 37 38 38 39 39 39 39 38 37 36 34 33 32 32 32 32 32 33 33 33 33 33 34 34 34 34 34 33 33 33 32 31 30 30 29 28
47 45 43 41 40 39 40 40 40 41 41 41 41 40 39 39 38 37 37 37 36 36 36 35 34 34 33 34 34 34 34 35 36 36 37 36 35 34 34 35 36 37 37 36 37 37 37 37 36 36 36 37 37 38 39 39 40 40 39 38 36 35 34 33 33 33 32 33 33 33 33 33 33 33 33 33 33 33 33 33 32 32 31 30 29 28
44 43 41 39 38 38 38 39 40 40 41 41 40 40 39 39 38 38 37 36 36 36 36 36 35 34 34 34 34 34 34 35 36 37 37 37 36 35 34 35 36 37 36 36 36 36 36 36 36 36 36 36 36 37 38 39 40 40 40 39 38 37 35 34 33 33 33 32 32 32 32 32 32 32 32 32 33 33 33 33 33 32 31 30 29 28
42 40 39 38 38 38 38 38 39 39 39 39 39 39 39 39 38 38 37 36 36 37 37 36 36 35 35 35 34 34 35 35 36 37 37 37 37 35 34 35 36 36 36 36 36 36 36 36 36 35 35 36 36 37 38 39 40 40 40 40 39 38 36 35 34 33 33 32 31 31 31 30 30 30 31 31 32 33 33 33 33 32 31 30 29 28
39 38 37 37 37 38 38 38 38 38 38 38 38 38 38 39 38 38 37 36 37 37 37 36 36 36 35 35 34 34 34 34 35 36 37 37 36 35 34 34 35 35 36 36 35 35 35 35 35 35 35 35 35 36 37 38 39 40 40 40 39 38 37 35 34 33 32 32 31 30 29 29 29 29 30 30 31 32 33 33 32 32 31 30 29 28
36 36 36 37 38 38 38 38 38 37 37 37 37 38 38 38 38 38 37 37 37 37 37 36 36 36 35 34 34 33 32 32 33 35 36 36 35 34 33 33 33 34 34 34 34 34 33 33 33 33 34 34 35 35 36 37 38 38 39 39 38 37 36 35 34 33 32 31 30 29 29 28 28 28 29 30 31 31 32 32 32 32 31 30 29 28
34 34 35 36 37 38 38 38 37 37 37 37 37 37 37 37 38 38 38 38 38 37 37 36 35 34 34 33 32 31 30 30 31 33 34 35 34 33 32 32 32 32 32 33 33 32 31 30 30 31 32 33 33 34 34 35 36 36 37 37 37 36 36 35 34 33 32 30 29 28 28 27 27 27 28 29 30 31 32 32 32 32 31 30 29 28
32 33 34 35 36 37 37 37 37 37 37 37 37 37 37 37 37 37 38 38 37 37 36 35 34 33 32 32 31 30 29 28 29 32 33 34 33 32 32 32 32 31 31 32 32 31 30 29 29 29 30 31 32 32 33 33 34 34 35 35 35 35 35 35 34 33 31 30 29 28 27 26 26 26 27 28 29 30 31 32 32 32 31 30 29 28
31 32 33 34 35 35 36 36 37 37 37 37 37 37 37 37 37 37 37 37 37 36 35 34 33 32 32 31 31 30 29 29 30 32 34 34 34 34 33 33 33 32 32 32 32 32 31 30 29 29 29 30 30 31 31 32 33 33 34 34 35 35 35 35 34 33 32 30 28 27 26 26 25 25 26 27 28 29 30 31 32 32 31 30 29 28
31 31 32 33 33 34 35 36 36 36 36 36 36 36 36 36 37 37 37 36 36 35 35 34 33 33 32 32 32 31 31 31 32 34 35 36 36 35 35 35 35 34 34 34 34 33 33 32 31 30 30 30 30 30 31 31 32 33 33 34 34 35 36 36 35 34 32 31 29 28 26 25 25 24 25 25 27 28 29 31 31 31 31 30 29 28
30 31 31 32 33 33 34 35 35 35 35 35 35 35 35 36 36 36 36 35 35 35 35 35 34 34 34 34 34 34 34 34 35 36 37 37 37 37 36 36 36 36 36 36 35 35 34 34 33 33 32 31 31 31 31 32 32 33 34 34 35 36 37 37 37 36 34 32 30 28 27 25 24 24 24 24 25 27 28 30 31 31 31 30 29 28
30 30 31 31 32 33 33 34 34 34 34 34 34 34 34 35 35 35 35 35 35 35 35 36 36 36 37 37 37 36 36 36 37 38 38 38 38 38 37 37 37 37 37 37 36 36 35 35 34 34 34 33 32 32 32 32 33 34 34 35 36 37 38 38 38 37 36 34 32 30 28 27 25 24 23 23 24 26 27 29 30 30 30 30 29 28
29 30 30 31 32 32 32 32 32 33 33 33 33 33 33 34 34 34 34 35 35 36 37 37 38 39 39 39 39 38 38 38 38 38 39 39 38 38 38 37 37 37 37 37 37 36 36 36 35 34 34 34 33 33 33 33 34 34 35 36 37 38 39 40 40 39 37 36 34 32 30 28 26 24 23 23 24 25 27 28 29 30 30 30 29 28
29 29 30 31 31 31 31 31 31 31 32 32 32 32 33 33 33 34 35 36 36 37 38 39 39 40 40 40 40 39 39 38 38 38 38 38 38 38 37 37 37 37 37 37 37 37 36 36 35 35 35 34 34 34 34 34 34 35 35 36 37 38 39 40 41 40 39 37 35 33 32 30 28 26 24 23 24 25 26 28 29 29 29 29 29 28
28 29 30 30 30 30 30 30 30 30 31 31 31 32 32 33 34 34 35 36 37 38 39 39 40 40 40 40 40 40 39 39 38 38 38 38 38 38 37 37 37 36 37 37 37 37 36 36 36 35 35 35 35 35 34 34 34 35 35 36 37 38 39 40 41 41 40 38 37 35 34 32 30 27 25 24 24 25 26 27 28 28 29 28 28 27
28 29 29 29 29 29 29 29 29 29 30 30 31 32 32 33 34 35 36 37 38 38 39 39 39 39 39 39 39 39 39 39 38 38 38 38 38 38 38 37 37 37 37 37 37 37 37 36 36 36 36 35 35 35 35 35 35 34 35 35 36 37 38 40 41 41 40 39 37 36 35 33 31 29 27 25 25 25 26 27 27 28 28 28 27 27
28 28 28 28 28 28 28 28 29 29 29 30 31 32 33 33 34 35 36 36 37 37 37 37 37 37 38 38 38 39 39 38 38 38 38 38 38 38 38 38 37 37 37 37 37 37 37 37 37 37 36 36 36 36 35 35 35 35 34 34 35 35 37 38 39 40 39 39 38 37 36 35 33 30 28 26 26 26 26 27 27 27 28 27 27 26
27 27 27 27 27 27 27 28 28 29 30 31 31 32 33 34 34 35 35 35 36 36 36 36 36 36 37 37 38 38 38 38 38 38 38 38 38 38 38 38 38 38 38 38 38 38 38 38 38 38 37 37 37 36 36 35 35 35 34 34 34 34 35 36 37 38 38 38 38 37 36 35 33 31 28 27 26 26 26 27 27 27 27 27 27 26
26 26 26 26 26 26 27 27 28 29 30 31 32 32 33 33 34 34 34 34 35 35 35 36 36 36 37 37 38 38 39 39 39 39 39 39 39 39 39 39 39 40 40 40 40 40 40 40 40 40 39 39 38 38 37 36 36 35 35 34 34 34 34 35 36 36 37 37 37 37 36 35 34 31 29 27 27 26 27 27 27 27 27 27 26 25
25 25 25 25 25 26 27 27 28 29 31 31 32 32 33 33 33 33 33 34 34 35 35 36 36 37 37 38 39 39 40 40 40 41 41 41 41 41 41 41 41 41 42 42 42 42 42 42 42 42 41 41 40 39 39 38 37 36 36 35 34 34 33 33 34 35 35 36 36 36 36 35 33 31 29 28 27 27 27 27 27 27 27 27 26 25
24 24 24 25 25 26 27 28 29 30 31 31 32 32 32 33 33 33 33 34 34 35 36 36 37 37 38 39 39 40 41 42 42 43 43 43 43 43 43 43 43 43 43 44 44 44 44 44 43 43 43 42 42 41 40 39 38 38 37 36 35 34 33 33 33 34 34 35 35 36 35 35 33 31 29 28 27 27 27 27 27 27 27 26 25 25
23 23 24 24 25 26 27 29 29 30 31 32 32 32 32 33 33 33 34 34 35 36 36 37 38 38 39 40 41 41 42 43 44 44 45 45 45 45 45 45 45 45 45 45 45 45 44 44 44 44 44 43 42 42 41 40 39 38 37 36 35 34 33 33 33 33 34 34 35 35 34 34 32 31 29 28 27 27 27 27 27 27 27 26 25 24
23 23 24 25 26 27 28 29 30 31 31 32 32 33 33 33 33 34 34 35 36 36 37 38 39 40 40 41 42 42 43 44 44 45 45 45 45 45 45 45 45 45 44 44 44 44 44 44 44 43 43 42 42 41 41 40 39 38 37 36 35 34 33 33 33 33 33 34 34 34 33 33 31 30 28 27 27 27 27 27 27 27 27 26 25 24
23 23 24 26 27 28 29 30 30 31 32 32 32 33 33 33 34 34 35 36 37 38 38 39 40 41 42 42 43 43 43 43 43 44 44 44 44 44 43 43 43 43 42 42 42 42 42 42 42 41 41 40 39 39 39 38 37 36 35 34 33 33 32 32 32 33 33 33 33 33 32 31 30 29 28 27 27 27 27 27 27 27 26 26 25 24
23 24 25 27 28 29 29 30 30 31 31 32 32 33 33 34 35 35 36 37 38 39 39 40 41 41 41 41 42 41 41 41 41 40 40 40 40 40 40 40 39 39 39 39 39 39 39 39 39 39 38 37 37 36 36 35 35 34 33 33 32 32 31 32 32 32 32 32 31 31 31 30 29 28 28 27 27 27 27 27 27 26 26 25 25 24
24 25 26 27 28 29 29 30 30 31 31 32 32 33 34 35 36 37 37 38 39 39 39 39 39 39 39 38 38 38 37 37 37 36 36 36 36 36 36 36 36 36 35 35 35 35 35 35 35 36 35 35 34 33 32 32 32 31 31 31 30 30 30 31 31 31 30 30 30 29 29 28 28 28 27 27 27 27 27 27 26 26 26 25 24 23
25 26 27 28 28 29 29 29 30 30 31 32 33 34 35 36 37 37 38 38 37 37 37 36 35 35 34 34 34 34 34 33 33 33 33 33 33 33 33 33 33 33 33 33 33 33 32 32 32 32 32 32 31 30 29 29 29 29 29 29 29 29 29 29 29 29 29 28 28 28 27 27 27 27 27 27 27 27 26 26 26 25 25 25 24 23
Wind_Direction
298 298 298 298 298 298 298 298 298 298 298 298 298 298 298 298 298 298 298 298 297 297 297 296 296 295 295 294 294 293 292 291 291 290 289 288 287 286 286 285 284 284 283 283 283 283 282 282 281 281 281 280 280 280 279 279 279 279 279 279 278 278 277 277 276 276 275 274 274 274 273 273 272 272 271 271 270 270 269 268 268 267 267 266 265 265
299 299 299 299 299 299 299 299 299 299 299 299 299 299 299 299 299 298 298 298 297 297 296 296 295 295 294 294 293 292 291 290 289 288 287 286 286 285 284 283 283 283 283 283 282 282 281 281 280 280 279 279 278 278 278 278 278 278 278 277 277 276 276 275 275 275 274 274 274 273 273 273 273 272 271 270 270 270 270 270 270 270 269 269 268 267
299 299 299 299 299 300 300 300 300 300 300 300 299 299 299 299 299 298 298 297 297 296 296 295 295 294 294 293 292 291 290 289 288 287 286 285 284 283 283 283 283 283 283 282 282 281 281 280 279 278 277 277 277 277 277 277 277 277 276 276 275 275 274 274 274 274 274 274 274 274 273 273 273 272 272 271 271 271 272 272 272 271 271 271 270 269
300 300 300 300 300 300 300 300 300 300 300 300 300 300 299 299 299 298 298 297 297 296 296 295 294 294 293 292 291 289 288 287 286 285 284 284 283 283 283 283 283 283 283 283 282 281 280 279 278 277 276 276 276 276 276 275 275 275 275 274 274 274 273 273 274 274 274 274 274 274 274 274 273 273 272 272 272 272 272 272 272 272 271 271 271 270
301 301 301 301 301 301 301 301 301 301 300 300 300 300 299 299 298 298 297 297 296 296 295 294 293 292 291 290 289 288 287 286 285 284 284 283 283 283 284 284 284 284 284 283 282 281 280 279 277 276 276 275 275 275 274 274 274 274 273 273 273 273 273 273 273 274 274 274 275 274 274 274 274 273 273 273 273 273 273 272 272 272 271 271 271 270
301 301 301 302 302 302 301 301 301 301 300 300 300 300 299 299 298 297 297 296 296 295 294 293 292 291 290 288 287 286 285 284 284 284 283 284 284 284 285 285 285 285 284 284 283 281 280 278 277 276 275 274 274 274 273 273 273 272 272 272 272 272 272 273 273 274 274 275 275 275 275 274 274 274 273 273 273 273 273 272 272 272 271 271 271 270
302 302 302 302 302 302 302 302 301 301 300 300 300 299 299 298 297 297 296 295 295 294 293 292 290 289 288 286 285 285 284 283 283 283 284 284 285 286 286 286 286 286 285 284 282 281 279 278 276 275 274 274 273 273 272 272 271 271 271 271 271 272 272 273 274 274 274 274 274 274 274 274 274 273 273 273 272 272 272 272 271 271 271 271 270 270
303 303 303 303 303 302 302 302 301 301 300 300 299 299 298 297 297 296 295 294 293 292 291 290 289 287 286 285 284 283 283 283 283 283 284 285 286 286 287 287 286 286 285 283 281 280 278 277 275 275 274 273 273 272 272 271 271 271 271 271 272 272 273 273 273 274 274 273 273 273 272 272 272 272 272 271 271 271 271 271 271 270 270 270 270 270
303 303 303 303 303 303 302 302 301 300 299 299 298 298 297 296 296 295 294 293 292 290 289 288 287 286 285 284 284 283 283 283 283 283 284 285 286 286 286 286 286 285 283 281 279 277 276 276 275 275 275 274 274 273 273 272 272 272 272 272 272 273 273 273 273 273 273 272 271 270 270 269 269 269 270 270 270 270 270 270 270 270 269 269 269 269
304 304 303 303 303 302 302 301 300 300 299 298 298 297 296 295 294 293 292 291 290 288 287 286 285 284 284 284 283 283 283 283 283 283 284 285 285 285 285 285 284 283 281 278 277 276 275 275 276 276 276 276 276 275 275 275 274 274 273 273 273 273 273 273 273 273 272 271 269 268 267 266 266 267 268 268 269 269 269 269 269 269 269 268 268 268
304 304 303 303 303 302 301 301 300 299 298 298 297 296 295 294 293 291 290 289 288 287 286 285 284 284 283 283 283 283 283 283 283 283 283 283 284 284 284 283 281 279 277 276 275 275 275 276 277 277 278 278 278 278 278 278 277 276 275 275 274 273 273 273 272 272 271 269 267 266 264 264 264 265 266 267 268 269 269 269 269 268 268 268 267 267
304 303 303 303 302 301 301 300 299 298 297 297 296 295 294 293 292 290 288 286 286 285 285 285 284 284 283 283 283 283 283 283 282 282 282 282 281 281 281 280 278 276 274 274 274 275 276 277 278 279 280 281 281 282 282 281 280 279 278 276 274 273 273 272 271 271 269 268 266 264 263 263 264 265 266 267 268 269 269 269 269 268 268 267 266 266
303 303 303 302 301 301 300 299 298 297 296 295 294 293 292 291 290 289 287 286 284 284 283 284 284 284 284 283 283 282 282 282 281 280 280 280 279 278 278 276 274 273 272 273 274 275 277 278 280 281 282 283 284 285 285 285 284 282 280 278 276 274 272 271 270 269 268 266 264 263 262 263 264 266 267 268 269 270 270 270 269 268 268 267 266 265
303 302 302 301 300 300 299 298 297 296 295 294 292 291 290 289 288 287 286 285 284 283 283 283 283 284 284 283 282 282 281 280 279 278 278 277 276 276 275 274 272 272 272 273 275 276 278 280 281 282 284 285 286 287 288 288 286 285 283 280 277 275 272 271 269 268 266 264 263 262 263 264 265 267 268 270 270 271 271 270 270 269 268 267 266 265
302 302 301 300 299 299 298 296 295 294 293 291 290 289 287 286 286 285 285 284 283 283 283 282 282 283 283 283 282 281 280 278 277 276 276 275 274 273 272 272 271 271 272 274 276 278 280 281 282 284 285 286 288 289 290 289 288 286 284 281 278 275 273 270 268 266 264 263 262 262 263 264 266 268 269 270 271 272 272 271 270 269 268 267 266 265
302 301 300 300 299 298 297 295 294 292 291 289 287 286 285 284 284 284 284 283 283 283 282 282 282 282 282 282 281 280 279 277 276 275 274 273 272 271 271 271 271 272 273 275 277 279 281 282 283 285 286 287 289 290 291 291 290 287 285 282 279 275 272 270 267 265 263 262 261 262 263 265 267 268 270 271 272 272 272 272 271 270 268 267 266 266
301 301 300 299 298 297 296 294 293 291 289 287 285 284 283 282 282 282 282 282 282 281 281 281 280 280 280 280 280 279 278 276 274 273 272 272 271 271 270 270 271 272 273 275 277 279 281 283 284 285 286 288 290 291 291 291 290 288 285 281 278 274 271 268 266 264 262 262 262 263 265 266 268 270 271 272 273 273 273 272 271 270 268 267 266 266
301 300 299 298 297 296 295 293 292 290 288 286 284 283 282 282 281 281 281 281 281 281 280 280 279 278 278 278 278 277 276 275 274 272 271 270 270 270 270 270 271 272 273 275 277 279 281 282 283 285 286 288 289 290 291 291 290 288 284 280 276 273 269 267 265 263 262 262 263 265 266 268 270 271 273 274 274 275 274 273 271 270 269 267 266 265
300 299 298 297 296 295 294 292 291 289 287 286 285 284 283 282 282 281 281 281 281 281 281 280 279 278 277 276 276 276 275 274 273 271 270 270 269 270 270 270 271 272 273 275 276 278 280 281 283 284 286 287 288 289 290 290 289 287 283 279 275 271 268 265 264 263 263 263 265 266 268 270 272 274 275 276 276 276 275 274 272 270 269 267 266 265
299 299 297 296 295 294 293 291 290 288 287 286 285 285 284 283 283 282 282 282 282 281 281 280 279 278 277 276 276 275 275 274 273 272 270 269 269 269 270 270 271 271 273 274 276 277 279 280 282 284 285 286 287 288 288 288 287 285 282 277 273 269 266 264 263 263 263 264 266 268 270 272 273 275 276 277 278 277 276 275 273 271 269 267 266 265
298 298 296 295 293 292 291 290 289 288 287 286 286 286 285 285 284 283 283 283 283 282 282 281 280 279 278 277 276 276 275 274 274 273 271 270 269 269 269 269 270 271 271 273 274 276 278 279 281 283 284 285 286 286 286 286 285 283 280 275 271 267 265 264 263 263 264 265 267 268 270 272 274 276 277 278 279 278 277 275 273 271 269 268 266 265
297 296 295 293 292 291 289 289 288 287 287 287 287 287 287 286 285 285 285 284 284 283 283 282 281 280 279 278 278 277 277 276 275 274 272 270 269 268 268 268 269 269 270 271 273 274 276 278 280 281 283 284 285 285 285 284 283 281 278 274 270 267 264 263 263 263 264 265 267 269 271 273 274 276 277 278 279 278 277 275 273 271 270 268 266 265
297 295 293 292 290 289 288 287 287 287 288 288 288 288 287 287 287 286 286 285 285 284 283 282 281 281 280 280 279 279 278 277 276 275 273 271 269 268 267 268 268 269 269 270 271 272 273 275 277 279 280 282 283 283 283 282 281 279 277 273 270 267 265 263 263 264 265 266 267 269 271 273 275 276 277 278 278 278 277 275 273 272 270 268 267 266
295 293 292 290 289 288 287 287 287 288 288 288 288 288 288 288 288 287 287 286 285 284 283 282 281 281 281 281 280 279 279 278 277 276 275 273 271 269 268 267 268 268 268 268 269 270 271 272 274 275 277 279 280 281 281 280 279 277 276 273 271 268 266 265 264 265 265 266 268 269 271 273 274 275 277 277 277 277 276 275 273 272 270 269 268 268
293 291 289 288 287 287 287 287 288 288 288 288 288 288 289 288 288 287 287 286 285 284 283 283 282 282 282 281 280 279 279 278 278 277 276 274 272 270 269 268 268 268 267 267 267 268 268 269 270 272 273 275 276 277 278 277 277 276 275 273 271 270 268 267 266 266 266 267 268 269 271 272 273 275 275 276 275 275 275 274 273 272 271 270 269 269
289 288 287 286 286 286 286 287 287 288 288 288 288 289 289 288 288 287 286 286 286 285 284 284 283 283 282 281 280 280 279 278 278 277 277 276 274 272 270 269 269 268 267 267 267 267 267 267 268 269 270 271 272 273 274 274 274 274 273 273 272 271 270 269 268 268 268 268 268 269 270 271 272 273 273 274 274 273 273 273 272 272 271 270 270 270
287 286 285 285 285 285 285 286 286 287 287 288 288 289 288 288 287 286 286 286 285 285 285 285 284 284 283 282 282 281 280 279 279 278 277 276 275 273 271 270 269 269 268 267 267 266 267 267 267 267 268 268 268 269 269 270 271 271 272 272 272 271 271 270 270 269 269 268 268 268 269 270 270 271 271 271 271 271 271 271 271 271 271 271 271 270
286 286 286 286 285 285 285 285 285 286 287 287 288 288 287 287 286 286 286 285 285 285 285 285 285 284 284 283 282 282 281 280 279 279 278 277 276 274 272 271 270 269 269 268 267 266 267 267 267 267 266 266 266 266 266 267 268 269 270 271 271 271 271 271 270 270 269 268 268 268 268 268 268 269 269 269 269 270 270 270 270 270 270 270 270 270
286 286 286 286 286 286 285 285 285 286 286 286 286 286 286 286 286 286 286 286 285 285 286 286 286 285 285 284 282 282 281 281 280 280 278 277 276 275 273 271 270 270 269 268 267 266 266 266 267 266 266 265 265 265 264 265 266 268 269 270 271 272 272 272 271 270 269 268 268 267 267 267 267 266 266 267 267 268 268 269 269 270 270 270 270 270
284 285 285 286 286 286 286 286 286 286 286 286 285 285 285 285 286 286 287 287 286 286 287 287 286 286 285 284 282 281 281 281 280 280 279 278 277 276 274 273 272 271 270 269 268 267 266 266 266 266 265 265 264 264 264 264 265 267 268 270 271 272 272 272 271 270 269 268 268 267 266 265 265 264 264 264 265 266 267 268 268 269 269 269 270 270
282 283 284 285 285 286 286 287 287 287 286 286 285 285 286 286 287 287 288 288 287 287 287 287 286 285 285 284 283 282 281 280 280 279 279 278 278 277 276 275 273 272 271 270 269 268 266 264 264 264 264 264 264 264 264 264 265 266 268 269 270 271 272 272 271 270 269 269 268 267 266 265 263 262 262 262 263 264 265 266 267 268 268 269 269 269
280 281 282 283 284 285 286 287 287 287 287 287 287 287 287 288 288 288 288 288 288 287 287 286 285 285 284 283 282 282 281 280 279 278 278 278 278 278 277 276 275 273 272 271 270 269 267 264 262 261 262 263 263 264 264 265 265 266 267 269 270 271 271 271 271 270 269 269 268 267 266 264 263 261 260 260 261 262 263 265 266 267 267 268 268 268
281 282 282 283 283 284 285 286 286 286 286 287 287 288 288 288 288 288 288 288 288 287 287 286 286 285 284 283 283 282 282 280 279 278 278 278 278 278 277 276 276 274 273 271 270 269 268 265 262 260 259 260 261 262 263 264 265 266 267 268 269 270 271 271 270 270 269 269 268 267 266 265 262 261 259 259 259 260 262 263 264 265 266 267 267 268
282 283 283 283 284 284 284 285 285 286 286 287 288 288 288 288 288 288 288 288 287 287 287 287 286 286 285 284 284 283 282 282 280 279 278 278 278 278 277 277 276 275 273 272 270 269 268 266 263 261 258 258 258 259 261 262 263 264 265 267 267 268 269 270 270 270 269 269 268 267 266 265 263 261 259 257 257 258 260 261 263 264 265 266 266 267
283 284 284 284 284 284 284 285 285 286 287 287 288 288 287 287 287 287 287 287 287 287 287 287 287 287 287 286 285 284 283 283 281 280 279 279 278 278 277 277 276 276 274 273 272 270 268 267 265 263 260 257 256 256 257 258 259 261 262 264 265 266 267 268 269 269 269 268 268 267 266 265 263 261 259 257 256 257 258 259 261 263 264 265 265 265
284 285 285 285 285 285 286 286 287 287 287 287 287 287 287 287 286 287 287 287 287 287 288 288 288 288 288 287 286 286 284 283 282 281 280 280 279 279 278 278 277 277 276 275 274 273 271 270 268 266 263 260 258 255 254 255 256 257 258 260 262 263 265 266 267 268 268 268 267 267 266 265 263 261 259 257 256 256 256 258 259 261 262 263 264 264
286 286 286 286 286 286 287 287 287 287 287 287 287 287 286 286 286 287 287 287 288 288 288 288 289 289 288 288 287 286 285 284 283 282 281 281 280 280 280 279 279 278 278 277 276 276 274 273 271 270 267 265 262 259 256 254 254 254 255 256 258 260 262 264 265 266 267 267 266 266 265 264 263 262 260 258 256 256 256 257 258 259 260 261 262 263
286 287 287 287 287 287 287 287 287 287 287 286 286 286 286 287 287 288 288 288 289 289 289 289 289 289 289 289 288 287 286 285 284 283 283 282 282 281 281 280 280 279 279 278 278 277 276 275 274 273 271 269 267 264 261 258 256 254 254 254 255 257 259 261 263 264 265 265 265 265 265 264 263 261 260 258 257 256 256 256 257 258 259 260 260 261
288 288 288 288 288 287 287 287 287 286 286 286 286 286 287 287 288 288 289 289 289 289 289 289 289 289 288 288 288 287 287 286 285 285 284 283 283 282 282 281 280 280 279 278 278 277 276 275 274 273 272 271 269 268 266 263 260 258 255 254 254 255 256 258 260 262 263 264 264 264 264 263 262 261 259 258 257 256 255 255 256 256 257 258 258 259
289 289 289 288 288 288 287 287 287 286 286 286 287 287 287 288 288 288 288 288 288 287 287 287 287 287 287 287 286 286 286 286 285 285 284 283 283 282 282 281 280 279 279 278 277 276 276 275 274 273 272 271 270 269 267 266 264 262 259 256 255 254 255 256 258 260 262 263 263 263 263 262 261 260 258 257 256 255 255 255 255 255 255 256 256 257
289 289 289 288 288 288 288 288 287 287 287 287 288 288 288 288 288 288 287 286 286 286 285 285 285 285 285 285 284 284 284 284 284 283 283 282 282 281 281 280 280 279 278 277 277 276 275 275 274 273 272 271 270 269 268 267 265 264 261 259 257 255 254 255 256 258 259 260 261 261 261 260 259 258 256 255 254 253 253 253 253 254 254 254 254 255
290 290 289 288 288 288 288 288 288 288 288 288 288 288 288 288 287 287 287 286 286 286 286 286 286 285 285 284 284 284 283 283 283 282 282 281 281 281 280 280 279 279 278 278 277 276 276 275 274 273 272 271 270 269 268 267 266 264 263 261 258 256 255 254 254 255 256 257 258 258 258 258 257 256 254 253 252 251 251 251 252 252 252 252 252 252
290 290 289 289 289 289 289 289 289 289 289 289 289 289 288 288 288 287 288 288 288 288 288 288 288 287 287 287 287 286 286 285 284 284 283 283 282 282 281 281 280 280 279 278 278 277 276 276 275 274 273 272 271 270 268 267 266 264 263 261 259 257 255 254 253 253 253 254 255 255 255 255 255 254 252 250 249 249 249 249 250 250 250 250 250 250
291 290 290 290 290 290 290 290 290 291 290 290 290 290 290 290 290 290 290 290 290 290 290 290 290 290 290 290 289 289 288 287 287 286 285 284 284 283 283 282 281 280 280 279 278 277 277 276 275 274 273 272 271 270 269 267 266 264 263 262 260 257 255 253 252 251 251 251 251 251 252 252 252 251 250 248 246 246 246 247 247 248 248 248 248 247
290 290 290 290 291 291 291 292 292 292 292 292 292 292 292 292 292 293 293 293 292 292 292 292 292 292 291 291 290 290 289 288 288 287 286 285 285 284 283 282 282 281 280 279 278 277 276 275 275 274 273 272 271 270 269 267 266 264 263 261 260 257 255 253 251 249 248 248 248 248 249 249 249 248 247 245 244 243 243 244 245 245 246 245 245 245
291 291 291 291 292 293 293 294 294 294 294 294 294 294 294 295 295 295 295 294 294 294 293 293 293 292 292 291 291 290 289 288 288 287 286 285 285 284 283 282 281 280 279 278 278 277 276 275 274 273 273 272 271 270 269 267 266 264 262 261 259 257 255 252 250 248 246 246 245 245 246 246 246 245 244 242 241 240 241 241 242 243 243 243 242 242
291 292 292 293 294 295 296 296 296 296 296 296 296 296 296 296 296 296 296 296 295 295 294 294 293 293 292 291 291 290 289 288 287 287 286 285 284 284 283 282 281 280 279 278 277 276 275 275 274 273 272 271 270 269 268 267 265 263 261 260 258 255 253 251 249 247 245 244 243 243 243 243 243 242 241 239 238 237 237 238 239 240 241 240 240 239
293 294 295 296 297 297 298 298 298 298 298 298 298 297 297 297 297 297 297 296 296 296 295 295 294 294 293 292 291 290 289 288 287 287 286 285 284 283 283 281 280 279 278 277 277 276 275 274 273 272 271 270 269 268 267 266 264 262 260 258 255 253 251 248 247 245 244 243 242 241 241 241 240 239 238 236 235 234 235 236 237 238 238 238 237 235
295 296 297 298 299 299 299 299 299 299 298 298 298 298 298 298 298 298 298 298 298 297 297 296 296 295 294 293 292 291 290 289 288 287 287 286 285 284 283 282 281 280 279 278 277 276 275 274 273 272 271 270 268 267 265 264 262 260 257 255 252 250 248 246 245 243 242 241 240 239 238 238 237 236 234 233 232 232 232 233 234 235 235 235 234 232
297 298 299 299 299 299 299 299 299 299 299 299 299 300 300 300 300 300 300 300 300 299 299 298 297 296 296 295 294 293 292 291 290 289 288 287 286 285 284 283 282 281 280 278 277 276 275 274 273 272 271 270 268 266 264 261 259 257 254 251 249 246 244 243 242 241 240 238 237 236 235 235 234 233 231 230 229 229 229 230 231 232 233 232 231 229
298 299 299 299 300 300 300 300 300 300 300 301 301 302 302 303 303 303 303 303 302 302 301 300 300 299 298 297 296 296 295 294 293 292 290 289 288 286 285 284 283 281 281 279 278 277 276 275 274 272 271 270 268 265 262 259 256 253 250 247 245 243 240 239 238 237 236 235 234 233 232 232 231 229 228 227 226 226 227 228 228 229 230 230 228 227
Height
5562 5561 5559 5557 5554 5552 5549 5547 5544 5541 5539 5537 5534 5532 5529 5527 5525 5523 5520 5518 5515 5513 5511 5509 5507 5504 5502 5500 5497 5495 5493 5491 5489 5487 5486 5484 5483 5482 5480 5479 5478 5477 5476 5475 5475 5474 5473 5473 5472 5471 5471 5470 5470 5469 5469 5468 5468 5468 5467 5467 5467 5466 5466 5465 5465 5465 5465 5465 5465 5465 5465 5465 5465 5465 5465 5464 5464 5464 5464 5464 5463 5463 5464 5463 5464 5465
5556 5554 5552 5550 5548 5546 5543 5540 5537 5534 5532 5529 5527 5524 5522 5520 5517 5515 5512 5510 5508 5505 5503 5501 5499 5497 5495 5492 5490 5488 5486 5484 5482 5481 5479 5478 5477 5476 5475 5474 5473 5472 5471 5471 5470 5469 5468 5468 5467 5467 5466 5466 5465 5465 5464 5464 5463 5463 5463 5463 5462 5462 5462 5461 5461 5461 5461 5461 5461 5461 5461 5461 5461 5461 5461 5462 5461 5460 5460 5459 5460 5460 5460 5459 5460 5461
5550 5548 5546 5544 5541 5539 5536 5533 5530 5527 5524 5522 5519 5517 5515 5513 5510 5507 5504 5502 5499 5497 5495 5493 5491 5489 5487 5485 5483 5481 5479 5477 5476 5475 5474 5473 5471 5470 5469 5469 5468 5467 5467 5466 5465 5464 5463 5463 5462 5462 5461 5461 5461 5460 5460 5460 5459 5459 5459 5458 5458 5458 5458 5458 5458 5457 5457 5457 5457 5457 5458 5458 5458 5458 5457 5457 5457 5457 5456 5456 5457 5457 5457 5456 5457 5457
5544 5541 5539 5537 5535 5532 5529 5526 5523 5520 5517 5514 5512 5509 5507 5504 5502 5499 5497 5494 5492 5489 5487 5485 5483 5482 5480 5478 5475 5474 5473 5471 5470 5469 5468 5467 5466 5465 5465 5464 5463 5463 5462 5461 5460 5459 5459 5458 5458 5457 5457 5456 5456 5456 5456 5455 5455 5455 5455 5454 5454 5454 5454 5454 5454 5454 5453 5453 5453 5453 5454 5454 5454 5454 5454 5453 5453 5453 5453 5452 5453 5454 5453 5453 5453 5453
5538 5534 5532 5530 5528 5525 5522 5519 5516 5513 5509 5506 5504 5502 5499 5496 5494 5491 5489 5486 5484 5482 5480 5477 5476 5474 5473 5471 5469 5468 5467 5465 5464 5463 5463 5462 5461 5460 5460 5459 5459 5458 5457 5456 5455 5455 5454 5453 5453 5453 5452 5452 5452 5452 5452 5451 5451 5451 5451 5451 5451 5451 5451 5451 5450 5450 5450 5450 5450 5450 5450 5450 5450 5450 5449 5449 5449 5449 5449 5449 5449 5449 5449 5449 5449 5449
5531 5528 5525 5522 5520 5518 5515 5512 5508 5505 5502 5499 5496 5494 5491 5488 5486 5483 5481 5479 5477 5475 5473 5471 5469 5467 5466 5464 5463 5462 5461 5460 5459 5458 5458 5457 5457 5456 5455 5455 5454 5453 5452 5452 5451 5450 5449 5449 5449 5448 5448 5448 5448 5448 5448 5448 5448 5448 5448 5448 5448 5448 5448 5447 5447 5447 5447 5447 5446 5446 5446 5446 5446 5446 5446 5446 5445 5445 5445 5445 5445 5445 5445 5445 5445 5445
5524 5521 5518 5515 5512 5509 5507 5504 5501 5497 5493 5491 5489 5487 5484 5481 5478 5476 5474 5472 5470 5468 5466 5464 5463 5461 5460 5459 5458 5457 5456 5456 5455 5454 5453 5453 5452 5452 5451 5450 5449 5449 5448 5447 5447 5446 5445 5445 5445 5445 5445 5445 5445 5444 5444 5444 5444 5444 5444 5444 5444 5444 5444 5444 5443 5443 5443 5443 5443 5443 5443 5443 5443 5442 5442 5442 5442 5442 5442 5442 5442 5442 5442 5442 5442 5442
5516 5513 5510 5508 5505 5502 5499 5496 5492 5489 5485 5483 5481 5479 5477 5474 5471 5469 5467 5465 5463 5461 5460 5459 5457 5455 5454 5453 5453 5452 5451 5451 5450 5450 5449 5448 5448 5447 5447 5446 5445 5444 5444 5443 5443 5442 5442 5442 5442 5442 5442 5442 5441 5441 5441 5441 5441 5441 5441 5441 5441 5440 5440 5440 5440 5440 5440 5439 5439 5439 5439 5439 5439 5439 5439 5439 5439 5438 5438 5438 5439 5438 5438 5438 5438 5438
5508 5506 5503 5500 5497 5494 5492 5488 5484 5480 5477 5475 5473 5471 5470 5468 5465 5462 5460 5459 5457 5455 5454 5453 5452 5451 5449 5448 5448 5448 5447 5446 5446 5446 5445 5444 5444 5443 5443 5442 5441 5441 5440 5440 5439 5439 5439 5439 5438 5438 5438 5438 5438 5438 5438 5438 5438 5438 5438 5437 5437 5437 5437 5437 5436 5436 5436 5436 5436 5436 5436 5436 5436 5436 5436 5436 5435 5435 5435 5435 5435 5435 5435 5435 5435 5435
5500 5498 5495 5492 5489 5486 5483 5480 5476 5472 5469 5467 5465 5463 5462 5461 5459 5457 5455 5453 5451 5449 5448 5448 5448 5447 5445 5444 5443 5443 5443 5442 5442 5441 5441 5440 5440 5439 5439 5438 5438 5437 5437 5437 5436 5436 5436 5436 5436 5436 5435 5435 5435 5435 5435 5434 5434 5434 5434 5434 5433 5433 5433 5433 5433 5433 5433 5433 5433 5433 5433 5433 5433 5433 5432 5432 5432 5432 5432 5432 5432 5432 5432 5432 5432 5433
5492 5489 5487 5484 5481 5478 5475 5472 5468 5465 5462 5459 5458 5455 5453 5453 5453 5452 5451 5448 5446 5444 5443 5443 5443 5443 5442 5440 5439 5438 5438 5438 5438 5437 5437 5437 5436 5436 5435 5435 5434 5434 5434 5433 5433 5433 5433 5433 5433 5433 5432 5432 5432 5432 5431 5431 5431 5430 5430 5430 5430 5430 5429 5429 5429 5429 5429 5429 5429 5429 5429 5429 5429 5429 5429 5429 5429 5429 5429 5429 5429 5429 5429 5429 5429 5429
5484 5481 5479 5476 5473 5471 5467 5464 5460 5457 5454 5453 5451 5449 5447 5444 5444 5445 5445 5444 5442 5440 5439 5438 5438 5438 5438 5437 5435 5434 5434 5434 5434 5433 5433 5433 5432 5432 5432 5432 5431 5431 5431 5430 5430 5430 5430 5430 5429 5429 5429 5429 5428 5428 5428 5427 5427 5427 5426 5426 5426 5426 5426 5426 5426 5426 5426 5426 5426 5426 5426 5426 5426 5426 5426 5426 5426 5426 5426 5426 5426 5426 5426 5426 5426 5426
5476 5474 5471 5468 5466 5463 5460 5457 5454 5450 5448 5446 5444 5443 5442 5439 5438 5438 5439 5438 5438 5437 5436 5435 5434 5433 5433 5432 5432 5431 5430 5430 5430 5429 5429 5428 5428 5428 5428 5428 5428 5428 5428 5427 5427 5427 5426 5426 5426 5426 5425 5425 5425 5424 5424 5423 5423 5423 5423 5422 5422 5422 5422 5422 5422 5422 5423 5423 5423 5423 5423 5423 5423 5423 5423 5423 5423 5423 5423 5423 5423 5423 5423 5423 5423 5423
5469 5466 5463 5461 5458 5456 5453 5451 5448 5445 5442 5440 5438 5438 5436 5435 5434 5433 5433 5433 5433 5433 5433 5432 5431 5430 5428 5428 5427 5427 5427 5426 5426 5426 5425 5425 5425 5425 5425 5425 5424 5424 5424 5424 5423 5423 5423 5423 5422 5422 5422 5422 5421 5421 5420 5420 5419 5419 5419 5418 5418 5418 5418 5418 5419 5419 5419 5419 5420 5420 5420 5420 5420 5420 5420 5420 5420 5420 5420 5420 5419 5419 5419 5419 5420 5420
5461 5458 5456 5453 5451 5449 5447 5444 5442 5439 5437 5435 5434 5433 5432 5430 5429 5429 5429 5428 5428 5428 5428 5428 5427 5427 5425 5424 5423 5423 5423 5423 5423 5423 5422 5422 5421 5421 5422 5421 5421 5421 5421 5420 5420 5420 5419 5419 5418 5418 5418 5418 5418 5417 5417 5416 5416 5416 5415 5415 5415 5415 5415 5415 5415 5416 5416 5416 5417 5417 5417 5417 5417 5417 5417 5417 5417 5417 5417 5417 5416 5416 5416 5416 5417 5417
5452 5450 5448 5445 5443 5441 5440 5438 5436 5434 5432 5430 5429 5428 5427 5426 5425 5425 5425 5424 5423 5423 5423 5423 5423 5423 5422 5421 5419 5418 5418 5418 5419 5419 5419 5418 5418 5418 5418 5418 5418 5418 5418 5417 5417 5416 5416 5415 5415 5415 5414 5414 5414 5414 5413 5413 5413 5412 5412 5412 5412 5412 5412 5412 5412 5413 5413 5413 5414 5414 5414 5414 5414 5414 5414 5414 5414 5414 5414 5413 5413 5413 5413 5413 5413 5413
5443 5442 5440 5438 5436 5434 5432 5431 5429 5428 5426 5425 5425 5424 5423 5423 5422 5421 5420 5420 5419 5419 5419 5419 5419 5419 5418 5418 5416 5415 5415 5415 5415 5416 5416 5415 5415 5414 5414 5414 5415 5415 5415 5414 5414 5413 5413 5412 5411 5411 5411 5411 5411 5411 5410 5410 5409 5409 5409 5409 5409 5409 5409 5409 5409 5410 5410 5411 5411 5411 5411 5411 5411 5411 5411 5411 5411 5411 5411 5410 5410 5410 5410 5410 5410 5410
5437 5435 5433 5431 5429 5427 5426 5424 5423 5422 5421 5420 5420 5420 5419 5418 5418 5417 5416 5415 5415 5415 5415 5415 5415 5415 5415 5414 5413 5412 5411 5411 5411 5412 5412 5412 5412 5411 5411 5411 5411 5412 5412 5411 5411 5410 5409 5409 5408 5408 5408 5408 5408 5408 5407 5407 5407 5406 5406 5406 5406 5406 5406 5407 5407 5407 5408 5408 5408 5408 5408 5408 5408 5408 5408 5408 5408 5408 5408 5408 5407 5407 5407 5407 5407 5407
5430 5428 5426 5424 5422 5420 5419 5419 5418 5417 5416 5415 5415 5415 5414 5413 5413 5413 5412 5411 5411 5411 5411 5411 5411 5411 5411 5410 5410 5409 5408 5408 5408 5408 5408 5409 5409 5408 5408 5408 5408 5408 5409 5408 5408 5407 5406 5405 5405 5404 5404 5404 5404 5404 5404 5404 5404 5403 5403 5403 5403 5403 5404 5404 5404 5404 5405 5405 5405 5405 5405 5405 5405 5405 5405 5405 5405 5405 5405 5404 5404 5404 5404 5404 5404 5404
5423 5421 5419 5418 5417 5415 5414 5413 5413 5413 5412 5411 5411 5410 5409 5409 5408 5408 5408 5407 5407 5407 5407 5407 5407 5407 5407 5407 5406 5406 5405 5404 5404 5404 5405 5406 5406 5406 5405 5404 5405 5405 5406 5406 5405 5404 5403 5402 5402 5401 5401 5401 5401 5401 5401 5401 5401 5401 5401 5401 5401 5401 5401 5402 5402 5402 5402 5402 5402 5403 5403 5403 5403 5402 5402 5402 5402 5402 5402 5402 5401 5401 5401 5401 5401 5402
5417 5415 5413 5412 5412 5411 5409 5408 5408 5408 5408 5407 5406 5405 5405 5404 5404 5404 5404 5404 5404 5403 5403 5403 5403 5403 5403 5403 5403 5403 5402 5401 5401 5401 5402 5402 5403 5403 5402 5401 5401 5402 5403 5403 5402 5401 5400 5399 5398 5398 5398 5397 5397 5397 5398 5398 5398 5398 5398 5398 5398 5398 5398 5399 5399 5399 5399 5399 5400 5400 5399 5399 5399 5399 5399 5399 5399 5399 5399 5398 5398 5398 5398 5398 5398 5399
5412 5410 5408 5408 5407 5406 5405 5404 5404 5403 5403 5403 5402 5401 5401 5401 5401 5400 5401 5400 5399 5399 5399 5399 5399 5399 5399 5399 5399 5399 5398 5398 5397 5398 5398 5398 5399 5400 5400 5398 5398 5398 5399 5400 5399 5398 5397 5396 5396 5395 5394 5394 5394 5394 5394 5394 5394 5394 5395 5395 5395 5395 5396 5396 5396 5397 5397 5397 5397 5397 5397 5397 5397 5397 5397 5396 5396 5396 5396 5396 5396 5396 5396 5396 5396 5396
5405 5405 5404 5403 5402 5402 5401 5400 5399 5399 5399 5398 5398 5398 5398 5398 5397 5396 5395 5395 5395 5395 5395 5395 5395 5395 5395 5395 5395 5395 5395 5394 5394 5394 5394 5394 5396 5397 5397 5395 5394 5395 5396 5396 5396 5395 5394 5394 5393 5392 5392 5391 5391 5391 5391 5391 5391 5391 5391 5392 5392 5393 5393 5393 5393 5394 5394 5394 5394 5394 5394 5394 5394 5394 5394 5394 5393 5393 5393 5393 5393 5393 5393 5393 5393 5393
5400 5399 5398 5398 5398 5397 5397 5396 5395 5395 5394 5393 5393 5393 5393 5393 5392 5392 5391 5391 5391 5391 5391 5391 5391 5392 5392 5392 5392 5392 5392 5391 5390 5390 5390 5391 5392 5393 5393 5392 5391 5392 5392 5393 5392 5392 5391 5391 5390 5390 5389 5388 5388 5388 5387 5387 5387 5388 5388 5388 5389 5389 5390 5390 5390 5391 5391 5391 5391 5391 5391 5391 5391 5391 5391 5391 5391 5391 5390 5390 5390 5390 5390 5390 5390 5391
5395 5394 5394 5394 5394 5393 5393 5393 5392 5391 5390 5390 5390 5390 5389 5389 5388 5388 5387 5387 5387 5387 5387 5387 5388 5388 5388 5389 5389 5389 5388 5388 5387 5386 5386 5386 5388 5389 5390 5389 5388 5388 5388 5389 5389 5388 5388 5388 5388 5387 5387 5386 5385 5385 5384 5384 5384 5384 5384 5385 5385 5386 5386 5387 5387 5388 5388 5388 5388 5388 5388 5388 5388 5388 5388 5388 5388 5388 5388 5388 5388 5388 5388 5388 5388 5388
5391 5390 5390 5390 5390 5390 5390 5390 5389 5388 5388 5388 5388 5387 5386 5384 5384 5384 5384 5384 5383 5383 5383 5383 5383 5384 5384 5385 5385 5385 5385 5384 5383 5383 5383 5383 5383 5385 5386 5386 5384 5384 5384 5385 5385 5385 5384 5385 5385 5384 5384 5383 5383 5382 5381 5381 5380 5380 5380 5381 5382 5382 5383 5383 5384 5384 5385 5385 5385 5386 5386 5386 5386 5386 5386 5386 5385 5385 5385 5385 5385 5385 5385 5385 5385 5385
5387 5387 5387 5387 5387 5386 5386 5385 5385 5385 5385 5384 5383 5382 5381 5380 5380 5380 5380 5381 5380 5379 5379 5379 5380 5380 5381 5381 5381 5381 5382 5381 5380 5379 5379 5379 5379 5381 5382 5382 5381 5380 5380 5381 5382 5382 5381 5381 5382 5382 5381 5380 5380 5379 5378 5378 5377 5377 5377 5377 5378 5378 5379 5380 5381 5381 5382 5382 5382 5383 5383 5383 5383 5383 5383 5383 5383 5383 5382 5382 5382 5382 5383 5383 5383 5383
5383 5383 5383 5383 5383 5382 5382 5381 5381 5381 5380 5379 5378 5378 5377 5377 5377 5376 5377 5377 5377 5376 5376 5376 5376 5376 5377 5377 5378 5378 5378 5378 5377 5376 5375 5375 5375 5376 5378 5378 5377 5376 5377 5377 5378 5378 5378 5378 5378 5378 5378 5377 5377 5376 5375 5375 5374 5373 5373 5374 5374 5375 5376 5377 5377 5378 5378 5379 5379 5380 5380 5380 5380 5380 5380 5380 5380 5380 5380 5380 5380 5380 5380 5380 5380 5380
5380 5380 5379 5379 5378 5378 5378 5378 5377 5377 5377 5376 5375 5375 5374 5373 5373 5373 5373 5373 5373 5373 5373 5373 5373 5373 5373 5373 5374 5374 5374 5374 5373 5372 5371 5371 5371 5372 5373 5373 5373 5373 5373 5373 5373 5374 5374 5375 5375 5374 5374 5374 5373 5373 5372 5372 5371 5371 5371 5371 5371 5372 5372 5373 5373 5374 5375 5375 5376 5377 5377 5378 5378 5378 5378 5378 5378 5377 5377 5377 5377 5377 5378 5378 5378 5378
5377 5377 5376 5376 5375 5374 5374 5374 5373 5373 5373 5373 5372 5371 5371 5370 5370 5370 5370 5370 5369 5369 5369 5369 5369 5369 5369 5369 5370 5370 5371 5371 5370 5368 5367 5367 5367 5368 5369 5369 5369 5369 5369 5369 5369 5370 5371 5371 5371 5371 5370 5370 5370 5369 5369 5369 5368 5368 5368 5368 5368 5368 5369 5369 5370 5370 5371 5372 5373 5373 5374 5374 5375 5375 5375 5375 5375 5375 5375 5375 5375 5375 5375 5375 5375 5376
5374 5374 5373 5373 5372 5371 5370 5370 5370 5369 5369 5369 5368 5368 5368 5367 5367 5366 5366 5366 5366 5366 5365 5366 5366 5366 5366 5365 5366 5367 5368 5368 5367 5365 5363 5363 5363 5364 5365 5364 5365 5365 5366 5365 5365 5366 5367 5368 5368 5368 5367 5366 5366 5366 5366 5366 5365 5365 5365 5365 5365 5365 5365 5365 5366 5367 5368 5368 5369 5370 5371 5371 5372 5372 5372 5372 5372 5372 5372 5372 5372 5372 5373 5373 5373 5373
5371 5371 5370 5370 5369 5368 5368 5367 5366 5366 5366 5365 5365 5364 5364 5364 5363 5363 5363 5362 5362 5362 5362 5362 5362 5362 5362 5362 5362 5363 5364 5364 5364 5362 5360 5359 5360 5361 5361 5361 5361 5362 5362 5362 5362 5362 5363 5364 5365 5365 5364 5363 5363 5363 5363 5363 5363 5362 5362 5362 5362 5362 5362 5362 5362 5363 5364 5365 5366 5367 5368 5368 5369 5369 5369 5370 5370 5370 5370 5370 5370 5370 5370 5370 5371 5371
5367 5367 5367 5367 5366 5365 5365 5364 5363 5363 5363 5362 5362 5361 5361 5360 5360 5360 5359 5359 5358 5358 5358 5358 5358 5358 5359 5359 5359 5359 5360 5360 5360 5358 5357 5356 5356 5357 5358 5358 5358 5358 5358 5358 5358 5358 5359 5360 5361 5361 5361 5361 5361 5360 5360 5360 5360 5359 5359 5359 5359 5359 5358 5358 5358 5359 5360 5362 5363 5364 5364 5365 5366 5366 5367 5367 5367 5367 5367 5367 5367 5368 5368 5368 5369 5369
5364 5364 5364 5363 5363 5363 5362 5361 5361 5360 5360 5359 5359 5358 5358 5357 5357 5356 5356 5355 5355 5355 5355 5355 5355 5355 5355 5355 5355 5356 5356 5357 5356 5355 5353 5353 5353 5353 5354 5354 5354 5354 5354 5354 5354 5355 5355 5356 5357 5357 5358 5358 5358 5358 5358 5357 5357 5357 5356 5356 5356 5356 5355 5355 5355 5356 5357 5358 5359 5360 5361 5362 5363 5363 5364 5364 5365 5365 5365 5365 5365 5365 5365 5366 5366 5367
5361 5361 5361 5360 5360 5359 5359 5358 5358 5357 5357 5356 5356 5355 5355 5354 5354 5353 5353 5352 5352 5352 5351 5351 5352 5352 5352 5352 5352 5352 5353 5353 5352 5351 5350 5349 5349 5349 5349 5349 5350 5350 5349 5350 5350 5350 5351 5351 5352 5353 5353 5354 5355 5355 5355 5355 5354 5354 5353 5353 5353 5352 5352 5352 5352 5352 5353 5355 5356 5357 5358 5359 5360 5361 5361 5362 5362 5362 5362 5362 5363 5363 5363 5363 5364 5365
5358 5358 5358 5357 5357 5357 5356 5356 5355 5354 5354 5353 5353 5352 5352 5351 5351 5350 5350 5350 5349 5349 5348 5348 5348 5348 5348 5348 5348 5348 5348 5348 5348 5347 5346 5345 5345 5345 5345 5346 5346 5346 5345 5345 5346 5346 5346 5347 5348 5348 5349 5350 5351 5352 5352 5352 5351 5351 5351 5350 5350 5349 5349 5348 5348 5349 5350 5351 5353 5354 5355 5356 5357 5358 5358 5359 5359 5360 5360 5360 5360 5360 5361 5361 5362 5363
5355 5355 5355 5354 5354 5353 5353 5353 5352 5352 5351 5351 5350 5349 5349 5348 5348 5348 5347 5347 5346 5346 5345 5345 5345 5344 5344 5344 5344 5344 5344 5343 5343 5343 5342 5342 5342 5342 5342 5342 5342 5342 5341 5341 5341 5342 5342 5342 5343 5343 5344 5345 5346 5347 5348 5348 5348 5348 5348 5347 5347 5346 5346 5345 5345 5346 5346 5348 5349 5350 5352 5353 5354 5355 5356 5357 5357 5357 5357 5358 5358 5358 5358 5359 5360 5360
5352 5352 5352 5351 5351 5350 5350 5350 5349 5349 5348 5348 5347 5347 5346 5346 5345 5345 5345 5344 5343 5343 5342 5342 5341 5341 5340 5340 5339 5339 5339 5339 5338 5338 5338 5338 5338 5338 5338 5338 5338 5338 5338 5337 5337 5337 5337 5338 5338 5338 5339 5340 5341 5342 5342 5343 5343 5344 5344 5344 5343 5343 5343 5343 5342 5342 5343 5344 5346 5347 5348 5350 5351 5352 5353 5354 5354 5355 5355 5355 5355 5356 5356 5357 5358 5358
5349 5349 5349 5348 5348 5348 5347 5347 5347 5346 5346 5345 5345 5344 5344 5343 5343 5343 5342 5341 5341 5340 5339 5339 5338 5338 5337 5336 5336 5335 5335 5335 5334 5334 5334 5333 5333 5333 5334 5334 5334 5334 5333 5333 5333 5333 5333 5333 5334 5334 5334 5335 5336 5336 5337 5338 5338 5339 5340 5340 5340 5340 5340 5339 5339 5339 5340 5341 5342 5343 5345 5346 5348 5349 5350 5351 5352 5352 5353 5353 5353 5353 5354 5355 5355 5356
5347 5346 5346 5346 5345 5345 5344 5344 5344 5343 5343 5343 5342 5342 5341 5341 5341 5340 5339 5338 5338 5337 5337 5336 5335 5335 5334 5333 5332 5332 5331 5331 5331 5331 5330 5330 5330 5329 5329 5330 5330 5330 5329 5329 5329 5329 5329 5329 5330 5330 5330 5331 5331 5332 5333 5333 5334 5335 5335 5336 5337 5337 5337 5336 5336 5336 5337 5338 5339 5340 5341 5343 5344 5346 5348 5348 5349 5350 5350 5350 5351 5351 5352 5352 5353 5354
5344 5343 5343 5343 5343 5342 5342 5342 5341 5341 5340 5340 5340 5339 5339 5338 5338 5338 5337 5336 5335 5334 5334 5333 5333 5332 5331 5330 5329 5328 5328 5328 5327 5327 5327 5326 5326 5326 5326 5326 5326 5326 5326 5325 5325 5325 5325 5325 5326 5326 5326 5327 5327 5328 5328 5329 5330 5330 5331 5332 5332 5333 5333 5333 5333 5333 5334 5335 5336 5337 5338 5339 5341 5343 5345 5346 5347 5347 5347 5348 5348 5349 5349 5350 5351 5352
5341 5341 5341 5340 5340 5340 5339 5339 5338 5338 5338 5338 5337 5337 5336 5336 5335 5335 5334 5333 5332 5331 5331 5330 5329 5329 5328 5327 5326 5325 5324 5324 5324 5323 5323 5323 5322 5322 5322 5322 5322 5322 5322 5322 5321 5321 5321 5321 5322 5322 5322 5323 5323 5324 5324 5325 5326 5326 5327 5328 5328 5329 5329 5330 5330 5330 5331 5332 5333 5333 5335 5336 5338 5340 5342 5343 5344 5344 5345 5345 5346 5346 5347 5348 5349 5350
5339 5338 5338 5338 5338 5337 5337 5337 5336 5336 5335 5335 5334 5334 5333 5333 5332 5332 5331 5330 5329 5328 5327 5327 5326 5325 5324 5323 5322 5321 5320 5320 5319 5319 5319 5318 5318 5318 5318 5318 5317 5317 5317 5317 5317 5317 5317 5317 5317 5317 5318 5318 5319 5319 5320 5321 5321 5322 5323 5323 5324 5325 5325 5326 5327 5327 5328 5328 5329 5330 5331 5333 5334 5336 5338 5340 5341 5342 5342 5343 5343 5344 5345 5346 5347 5348
5337 5336 5336 5335 5335 5335 5334 5334 5334 5333 5333 5332 5331 5331 5330 5329 5329 5328 5328 5327 5326 5325 5324 5323 5322 5321 5320 5319 5318 5317 5316 5315 5315 5314 5314 5314 5314 5313 5313 5313 5313 5313 5313 5313 5312 5312 5312 5312 5312 5313 5313 5313 5314 5315 5315 5316 5317 5318 5318 5319 5320 5321 5322 5322 5323 5324 5324 5325 5326 5327 5328 5329 5331 5333 5335 5337 5338 5339 5340 5340 5341 5342 5343 5343 5345 5346
5334 5334 5333 5333 5333 5333 5332 5332 5331 5330 5330 5329 5328 5328 5327 5326 5325 5325 5324 5323 5323 5322 5320 5319 5318 5318 5316 5315 5314 5313 5312 5311 5310 5310 5309 5309 5309 5309 5309 5308 5308 5308 5308 5308 5308 5307 5307 5307 5307 5308 5308 5308 5309 5310 5311 5311 5312 5313 5314 5315 5316 5317 5318 5318 5319 5320 5321 5321 5322 5323 5325 5326 5328 5330 5332 5334 5335 5336 5337 5338 5338 5339 5340 5341 5343 5344
5332 5332 5332 5331 5331 5330 5330 5329 5328 5328 5327 5326 5325 5324 5323 5323 5322 5321 5321 5320 5319 5318 5317 5316 5315 5314 5313 5312 5311 5310 5308 5307 5306 5305 5305 5304 5304 5304 5304 5303 5303 5303 5303 5302 5302 5302 5302 5302 5302 5303 5303 5303 5304 5305 5306 5306 5307 5308 5309 5310 5311 5312 5313 5314 5315 5316 5317 5318 5319 5320 5322 5323 5325 5327 5329 5331 5332 5333 5334 5335 5336 5337 5338 5339 5341 5342
5330 5329 5329 5329 5328 5328 5327 5326 5326 5325 5324 5323 5322 5321 5320 5319 5319 5318 5318 5317 5316 5315 5314 5313 5312 5310 5309 5308 5307 5306 5304 5303 5302 5301 5300 5300 5299 5299 5298 5298 5298 5298 5298 5297 5297 5297 5297 5297 5297 5298 5298 5298 5299 5300 5300 5301 5302 5303 5304 5306 5307 5308 5309 5310 5311 5312 5313 5314 5315 5317 5318 5320 5323 5324 5326 5328 5329 5331 5332 5333 5333 5335 5336 5337 5339 5340
5328 5327 5327 5326 5326 5325 5324 5323 5323 5322 5321 5320 5319 5318 5317 5317 5316 5315 5314 5313 5313 5311 5310 5309 5308 5306 5305 5303 5302 5301 5300 5299 5298 5296 5296 5295 5294 5294 5293 5293 5293 5293 5293 5292 5292 5292 5292 5292 5292 5293 5293 5294 5294 5295 5296 5297 5298 5299 5300 5301 5303 5304 5305 5306 5307 5308 5309 5311 5312 5314 5316 5318 5320 5322 5323 5325 5326 5328 5329 5330 5331 5332 5334 5335 5337 5338
5325 5325 5324 5324 5323 5322 5322 5321 5320 5319 5318 5317 5316 5315 5314 5313 5313 5312 5311 5310 5309 5308 5306 5305 5303 5302 5300 5299 5298 5297 5295 5294 5293 5292 5291 5291 5290 5289 5289 5288 5288 5288 5288 5288 5288 5288 5288 5288 5288 5288 5288 5289 5290 5291 5291 5292 5293 5294 5296 5297 5298 5299 5301 5302 5303 5304 5306 5308 5309 5311 5313 5315 5317 5319 5321 5322 5323 5325 5326 5328 5329 5330 5332 5333 5335 5337
5323 5323 5322 5322 5321 5320 5319 5318 5318 5317 5316 5315 5313 5313 5312 5311 5310 5309 5308 5307 5305 5304 5302 5301 5299 5298 5296 5295 5293 5292 5291 5290 5289 5288 5287 5287 5286 5285 5285 5284 5284 5284 5283 5283 5283 5283 5283 5283 5283 5284 5284 5285 5286 5287 5288 5288 5289 5290 5292 5293 5294 5296 5297 5298 5300 5301 5303 5305 5306 5308 5310 5312 5314 5316 5318 5319 5321 5322 5324 5326 5327 5328 5330 5331 5333 5335
5321 5320 5320 5319 5318 5318 5317 5316 5315 5314 5313 5312 5311 5310 5309 5308 5307 5305 5304 5303 5301 5300 5298 5297 5295 5294 5293 5291 5290 5289 5288 5287 5286 5284 5283 5283 5282 5282 5281 5281 5280 5280 5280 5279 5279 5279 5279 5280 5280 5280 5281 5281 5282 5283 5284 5285 5286 5287 5288 5289 5291 5293 5294 5295 5297 5298 5300 5302 5304 5306 5308 5310 5312 5313 5315 5317 5318 5320 5322 5323 5325 5327 5328 5329 5331 5333